Weather Roundup
Issued by NWS Chicago, IL

Home | Current Version | Previous Version | Graphics & Text | Print | Product List | Glossary On
Versions: 1 2 3 4 5 6 7 8 9 10 11 12 13 14 15 16 17 18 19 20 21 22 23 24 25 26 27 28 29 30 31 32 33 34 35 36 37 38 39 40 41 42 43 44 45 46 47 48 49 50
000
NZUS59 KLOT 221309
HRRLOT

CHICAGO AREA WEATHER ROUNDUP
NATIONAL WEATHER SERVICE CHICAGO/ROMEOVILLE IL
800 AM CDT SUN OCT 22 2017

NOTE: "FAIR" INDICATES FEW OR NO CLOUDS BELOW 12,000 FEET WITH NO
SIGNIFICANT WEATHER AND/OR OBSTRUCTIONS TO VISIBILITY.

* THESE STATIONS ARE NOT UNDER NWS QUALITY CONTROL. THEY ALSO MAY NOT
  REPORT WEATHER SUCH AS PRECIPITATION OR FOG.

ILZ005-006-012>014-019>023-221400-
NORTHEAST ILLINOIS

CITY           SKY/WX    TMP DP  RH WIND       PRES   REMARKS
OHARE          CLOUDY    66  56  70 S14       29.94R
MIDWAY         MOCLDY    66  56  70 S14G23    29.95R
AURORA         CLOUDY    66  59  78 S12       29.93R
LANSING*       PTCLDY    64  57  78 S16G25    29.98R
JOLIET*        MOCLDY    66  59  77 S9G16     29.95R
WAUKEGAN       CLOUDY    67  58  72 S16G23    29.93R
DUPAGE AIRPORT MOCLDY    65  59  81 S14       29.93R
WHEELING       CLOUDY    66  58  75 S14       29.95R
KANKAKEE*      CLEAR     65  56  74 S14G22    29.98R
MORRIS*        CLOUDY    65  57  75 S15       29.93R
LEWIS AIRPORT* MOCLDY    63  57  81 S9        29.95R
NORTHERLY ISL    N/A     65  54  67 S9          N/A
$$

WIZ051-052-058>065-066-070>072-221400-
SOUTHEAST WISCONSIN

CITY           SKY/WX    TMP DP  RH WIND       PRES   REMARKS
MILWAUKEE      CLOUDY    62  57  83 S5        29.93R
KENOSHA*       MOCLDY    67  58  72 S10       29.93R
RACINE*        CLOUDY    61  57  87 S12       29.95R
BURLINGTON     CLOUDY    65  60  83 S8        29.92S
WAUKESHA       CLOUDY    63  55  77 S7        29.93R
WEST BEND      CLOUDY    63  59  88 S9        29.91S
$$

INZ001>003-010>013-019-020-221400-
NORTHWEST INDIANA

CITY           SKY/WX    TMP DP  RH WIND       PRES   REMARKS
GARY*          PTCLDY    66  54  63 S16       29.98R
MICHIGAN CITY* NOT AVBL
RENSSELAER*    NOT AVBL
VALPARAISO     MOCLDY    65  54  67 S15G21    30.02R
$$

LMZ740>746-221400-
SOUTHERN LAKE MICHIGAN

STATION/POSITION TIME  SKY/WX   TEMP WIND        PRES    VSBY
                                AIR  DIR/SP/G
                 (UTC)          (F)  (DEG/KT/KT) (MB)    (MI)
HARRISON CRIB    1230            66  190/ 22/ 24   N/A
BURNHAM HARBOR   1300            65  150/ 14/ 16   N/A
CALUMET HARBOR   1248            65  170/ 11/ 17 1014.0R
BURNS HARBOR     1240            66  180/ 16/ 24 1015.6R
MICHIGAN CITY    1230            64  160/ 14/ 17   N/A
$$

ABBREVIATIONS USED IN REMARKS
   TC - TEMPERATURE IN CELSIUS
  WCI - WIND CHILL INDEX
   HX - HEAT INDEX
  VSB - VISIBILITY
$$



USA.gov is the U.S. government's official web portal to all federal, state and local government web resources and services.